TimeEST,TemperatureF,Dew PointF,Humidity,Sea Level PressureIn,VisibilityMPH,Wind Direction,Wind SpeedMPH,Gust SpeedMPH,PrecipitationIn,Events,Conditions,WindDirDegrees,DateUTC
12:00 AM,19.4,14.0,80,29.62,1.8,SSW,18.4,31.1,0.00,Snow,Light Snow,210,2014-01-25 05:00:00
12:53 AM,19.9,15.1,81,29.61,1.5,SSW,23.0,29.9,0.00,Snow,Light Snow,210,2014-01-25 05:53:00
1:12 AM,19.4,15.8,86,29.56,2.0,SW,21.9,31.1,0.00,Snow,Light Snow,220,2014-01-25 06:12:00
1:21 AM,19.4,15.8,86,29.54,1.5,SSW,20.7,35.7,0.00,Snow,Light Snow,210,2014-01-25 06:21:00
1:53 AM,21.0,16.0,81,29.56,1.5,SW,19.6,35.7,0.00,Snow,Light Snow,220,2014-01-25 06:53:00
2:46 AM,21.2,15.8,80,29.49,2.0,SW,20.7,29.9,0.00,Snow,Light Snow,220,2014-01-25 07:46:00
2:53 AM,21.0,16.0,81,29.53,2.0,SW,19.6,28.8,0.00,Snow,Light Snow,220,2014-01-25 07:53:00
3:02 AM,21.2,15.8,80,29.48,1.5,SW,17.3,28.8,0.00,Snow,Light Snow,220,2014-01-25 08:02:00
3:53 AM,21.9,17.1,82,29.49,1.0,SW,18.4,33.4,0.00,Snow,Light Snow,220,2014-01-25 08:53:00
4:02 AM,21.2,17.6,86,29.45,1.0,SW,18.4,32.2,0.00,Snow,Light Snow,220,2014-01-25 09:02:00
4:08 AM,21.2,17.6,86,29.44,1.0,SSW,20.7,32.2,0.00,Snow,Light Snow,210,2014-01-25 09:08:00
4:53 AM,21.9,17.1,82,29.46,1.5,SW,19.6,32.2,0.00,Snow,Light Snow,220,2014-01-25 09:53:00
5:01 AM,21.2,17.6,86,29.42,1.5,SW,17.3,29.9,0.00,Snow,Light Snow,220,2014-01-25 10:01:00
5:22 AM,21.2,17.6,86,29.41,2.0,SW,18.4,28.8,0.00,Snow,Light Snow,220,2014-01-25 10:22:00
5:30 AM,23.0,17.6,80,29.41,3.0,SW,18.4,27.6,0.00,Snow,Light Snow,220,2014-01-25 10:30:00
5:35 AM,23.0,17.6,80,29.40,2.0,SW,19.6,28.8,0.00,Snow,Light Snow,220,2014-01-25 10:35:00
5:43 AM,23.0,17.6,80,29.40,1.5,SW,20.7,29.9,0.00,Snow,Light Snow,220,2014-01-25 10:43:00
5:53 AM,23.0,18.0,81,29.44,2.0,SW,18.4,29.9,0.00,Snow,Light Snow,220,2014-01-25 10:53:00
6:01 AM,23.0,17.6,80,29.40,2.0,SW,19.6,32.2,0.00,Snow,Light Snow,220,2014-01-25 11:01:00
6:08 AM,23.0,17.6,80,29.39,1.8,SW,20.7,28.8,0.00,Snow,Light Snow,220,2014-01-25 11:08:00
6:24 AM,23.0,19.4,86,29.39,1.5,SW,17.3,32.2,0.00,Snow,Light Snow,220,2014-01-25 11:24:00
6:40 AM,24.8,19.4,80,29.38,2.0,SW,19.6,28.8,0.00,Snow,Light Snow,220,2014-01-25 11:40:00
6:53 AM,24.1,19.0,81,29.42,2.0,SW,18.4,32.2,0.00,Snow,Light Snow,220,2014-01-25 11:53:00
7:18 AM,24.8,19.4,80,29.38,1.8,SW,15.0,27.6,0.00,Snow,Light Snow,230,2014-01-25 12:18:00
7:25 AM,24.8,19.4,80,29.37,2.5,SW,18.4,26.5,0.00,Snow,Light Snow,220,2014-01-25 12:25:00
7:32 AM,24.8,19.4,80,29.37,4.0,SW,17.3,27.6,0.00,Snow,Light Snow,220,2014-01-25 12:32:00
7:44 AM,24.8,19.4,80,29.37,2.0,SW,20.7,27.6,0.00,Snow,Light Snow,230,2014-01-25 12:44:00
7:53 AM,25.0,19.9,81,29.40,2.0,SW,18.4,27.6,0.00,Snow,Light Snow,230,2014-01-25 12:53:00
8:13 AM,24.8,21.2,86,29.36,0.8,SW,17.3,28.8,0.00,Snow,Light Snow,230,2014-01-25 13:13:00
8:49 AM,26.6,21.2,80,29.37,1.8,WSW,10.4,16.1,0.00,Snow,Light Snow,240,2014-01-25 13:49:00
8:53 AM,26.1,21.9,84,29.40,1.5,WSW,9.2,19.6,0.00,Snow,Light Snow,240,2014-01-25 13:53:00
9:04 AM,26.6,21.2,80,29.38,1.0,West,10.4,19.6,0.00,Snow,Light Snow,260,2014-01-25 14:04:00
9:13 AM,26.6,23.0,86,29.38,1.0,WSW,11.5,16.1,0.00,Snow,Light Snow,250,2014-01-25 14:13:00
9:17 AM,26.6,23.0,86,29.37,0.8,WSW,8.1,16.1,0.00,Snow,Light Snow,240,2014-01-25 14:17:00
9:28 AM,26.6,23.0,86,29.37,2.5,WSW,6.9,-,0.00,Snow,Light Snow,250,2014-01-25 14:28:00
9:30 AM,26.6,23.0,86,29.37,5.0,WSW,6.9,16.1,0.00,Snow,Light Snow,250,2014-01-25 14:30:00
9:53 AM,28.0,23.0,81,29.41,10.0,WSW,6.9,-,0.00,,Clear,250,2014-01-25 14:53:00
10:53 AM,30.9,18.0,59,29.41,10.0,West,8.1,24.2,N/A,,Mostly Cloudy,280,2014-01-25 15:53:00
11:43 AM,28.4,19.4,69,29.42,0.8,WNW,21.9,40.3,0.00,Snow,Light Snow,300,2014-01-25 16:43:00
11:53 AM,27.0,19.9,75,29.44,0.8,WNW,13.8,28.8,0.00,Snow,Light Snow,300,2014-01-25 16:53:00
11:59 AM,28.4,17.6,64,29.42,2.5,WNW,13.8,26.5,0.00,Snow,Light Snow,300,2014-01-25 16:59:00
12:06 PM,28.4,17.6,64,29.42,8.0,WNW,12.7,26.5,0.00,,Scattered Clouds,300,2014-01-25 17:06:00
12:53 PM,27.0,12.0,53,29.46,8.0,WNW,11.5,29.9,0.00,,Partly Cloudy,300,2014-01-25 17:53:00
1:53 PM,24.1,12.0,60,29.50,7.0,NW,19.6,28.8,0.00,Snow,Light Snow,310,2014-01-25 18:53:00
2:53 PM,23.0,8.1,53,29.54,9.0,WNW,16.1,33.4,0.00,,Mostly Cloudy,300,2014-01-25 19:53:00
3:53 PM,19.9,6.1,55,29.60,6.0,WNW,18.4,28.8,0.00,,Haze,300,2014-01-25 20:53:00
4:53 PM,18.0,8.1,65,29.65,5.0,NW,18.4,25.3,0.00,Snow,Light Snow,320,2014-01-25 21:53:00
4:59 PM,17.6,8.6,68,29.62,2.0,NW,17.3,26.5,0.00,Snow,Light Snow,320,2014-01-25 21:59:00
5:07 PM,15.8,8.6,73,29.63,1.5,NW,17.3,29.9,0.00,Snow,Light Snow,310,2014-01-25 22:07:00
5:12 PM,15.8,6.8,68,29.64,2.5,NW,15.0,27.6,0.00,Snow,Light Snow,310,2014-01-25 22:12:00
5:19 PM,15.8,6.8,68,29.64,7.0,NW,13.8,25.3,0.00,,Mostly Cloudy,310,2014-01-25 22:19:00
5:31 PM,15.8,3.2,58,29.65,10.0,WNW,10.4,18.4,0.00,,Scattered Clouds,290,2014-01-25 22:31:00
5:53 PM,16.0,1.9,54,29.70,10.0,WNW,11.5,17.3,0.00,,Clear,290,2014-01-25 22:53:00
6:53 PM,14.0,3.9,64,29.75,10.0,Variable,5.8,-,N/A,,Partly Cloudy,0,2014-01-25 23:53:00
7:53 PM,14.0,3.9,64,29.79,10.0,Variable,5.8,-,N/A,,Scattered Clouds,0,2014-01-26 00:53:00
8:53 PM,12.9,3.9,67,29.81,10.0,West,9.2,-,N/A,,Overcast,260,2014-01-26 01:53:00
9:53 PM,12.0,3.9,70,29.82,9.0,West,8.1,-,N/A,,Mostly Cloudy,260,2014-01-26 02:53:00
10:16 PM,12.2,3.2,67,29.80,10.0,WSW,6.9,-,N/A,,Overcast,250,2014-01-26 03:16:00
10:23 PM,12.2,3.2,67,29.80,10.0,WSW,8.1,-,N/A,,Overcast,250,2014-01-26 03:23:00
10:53 PM,12.0,1.0,61,29.85,10.0,West,10.4,18.4,N/A,,Overcast,260,2014-01-26 03:53:00
11:53 PM,10.0,-0.9,61,29.85,10.0,WSW,4.6,-,N/A,,Clear,240,2014-01-26 04:53:00